Location: Casone le Fosse
(44.6547°N, 12.1103°E)
Time: 11:44:12
(UTC+00:00)

Atlas Centaur 2 - Pass Details

Date: 29 October 2020
Orbit: 459 x 1309 km, 30.4° (Epoch: 27 November)

Event Time Altitude Azimuth Distance (km) Brightness Sun altitude
Rises 17:13:39 0° 239° (WSW) 4,078 7.1 -12.9°
Reaches altitude 10° 17:16:50 10° 229° (SW) 3,201 6.1 -13.4°
Maximum altitude 17:23:36 29° 174° (S) 2,191 4.3 -14.6°
Enters shadow 17:29:48 13° 122° (ESE) 3,111 4.6 -15.7°
